Regional Weather Roundup
Issued by NWS Newport/Morehead, NC

Current Version | Previous Version | Text Only | Print | Product List | Glossary On
Versions: 1 2 3 4 5 6 7 8 9 10 11 12 13 14 15 16 17 18 19 20 21 22 23 24 25 26 27 28 29 30 31 32 33 34 35 36 37 38 39 40 41 42 43 44 45 46 47 48 49 50
133
ASUS42 KMHX 110625
RWRMHX
WEATHER ROUNDUP FOR EASTERN NORTH CAROLINA
NATIONAL WEATHER SERVICE NEWPORT/MOREHEAD CITY NC
100 AM EST THU FEB 11 2016

NOTE: "FAIR" INDICATES FEW OR NO CLOUDS BELOW 12,000 FEET
WITH NO SIGNIFICANT WEATHER AND/OR OBSTRUCTIONS TO VISIBILITY

NCZ015>017-031-032-045>047-102-103-110700-
NORTH COAST

CITY           SKY/WX    TMP DP  RH WIND       PRES   REMARKS
EDENTON        CLEAR     30  10  43 NW15G21   30.04S WCI  19
ELIZABETH CITY CLEAR     28   9  44 W18G26    30.02R WCI  15
KITTY HAWK     CLEAR     30  10  42 W14G25    29.99R WCI  20
MANTEO         CLEAR     31  13  48 NW20G29   30.01R WCI  18

$$

NCZ045>047-081-094-103-104-110700-
CENTRAL COAST

CITY           SKY/WX    TMP DP  RH WIND       PRES   REMARKS
FRISCO         CLEAR     35  16  45 NW17G30   30.02R
SWANQUARTER      N/A     30 N/A N/A NW17      30.03R WCI  18

$$

NCZ095-097-098-100-101-110700-
SOUTHERN COAST

CITY           SKY/WX    TMP DP  RH WIND       PRES   REMARKS
BEAUFORT       CLEAR     32  18  56 W16       30.08R
CEDAR ISLAND     N/A    N/A N/A N/A W7G30     30.09S
JACKSONVILLE   CLEAR     28  18  66 W6        30.09
PINEY ISLAND   CLEAR    N/A N/A N/A NW15G24   30.06R
WILMINGTON     CLEAR     30  17  58 W7        30.11R


$$

NCZ011>013-027>030-043-044-078>080-089-090>093-098-110700-
COASTAL PLAIN

CITY           SKY/WX    TMP DP  RH WIND       PRES   REMARKS
AHOSKIE        CLEAR     26   6  43 NW3       30.06R
CLINTON        CLEAR     29  14  53 W3        30.11R
ELIZABETHTOWN  CLEAR     29  15  54 W3        30.11S
GOLDSBORO      CLEAR     28   9  43 W7        30.07R
GREENVILLE     CLEAR     30  10  43 NW5       30.09R
HAVELOCK       CLEAR     30  17  58 W12       30.09R
KENANSVILLE    CLEAR     28  13  53 CALM      30.11R
KINSTON        CLEAR     29  11  46 W6        30.09R
NEW BERN       CLEAR     29  13  51 W9        30.09R
RICHLANDS      CLEAR     28  12  50 SW3       30.10R
ROCKY MOUNT    CLEAR     27   9  46 W8        30.07R
WASHINGTON     CLEAR     28  11  49 NW6       30.07R
WHITEVILLE     CLEAR     31  15  50 CALM      30.11R

$$

AMZ130-135-150-152-154-156-158-170-250-252-270-ANZ085-086-088-633-658-670-110700-
MARINE OBSERVATIONS

STATION/POSITION TIME  TEMP    WIND        PRES    WAVE   SWELL
                       AIR SEA DIR/SP/G            HT/PER HT/PER
                 (UTC) (F)     (DEG/KT/KT) (MB)    (FT/S) (FT/S)
CHESAPEAKE LIGHT 0600   31     320/ 26/ 29 1015.2
64 E VA BEACH    0550   36 49  290/ 25/ 31 1012.7    9/ 6   2/11
DUCK             0600   30     290/ 22/ 28 1015.3
2 E DUCK         0511      44                N/A     3/14   2/14
OREGON INLET     0600   32 43  280/ 18/ 27 1015.9
13E OREGON INLT  0600      46                N/A     5/ 4   2/13
HATTERAS CG      0600   35 48  290/ 24/ 29 1016.2
DIAMOND BUOY     0550   41 71  290/ 27/ 33 1015.6    7/ 5   2/14
CAPE LOOKOUT     NOT AVBL
BEAUFORT LAB     0600   33 46  290/  7/ 13 1017.4
30 SE NEW RVR IN 0608   40 59              1018.2
30 SE NEW RVR IN 0555      59                N/A     8/ 8   2/14
27 SE WRIGHTSVLE 0608   41 60  360/ 25/ 33 1016.9
5 SE WRIGHTSVLE  0508   38 51  270/ 19/ 25 1019.1
225 S CAPE HAT   0550   54 68  290/ 27/ 37   N/A    13/10   8/10
41 SE CHARLESTON 0550   46 63  280/ 25/ 35 1020.0    8/ 7   2/12

$$




USA.gov is the U.S. government's official web portal to all federal, state and local government web resources and services.